| time (UTC) | temp C | wind direction | speed KPH | gust KPH | rain 1hr cm | rain 24hr cm | rain mn cm | humidity % | barometer mb |
| 20260902014823 | 22 | 171 | 9.7 | 12.9 | 0.00 | 0.00 | 0.00 | 50 | 1022.0 |
| 20260902014322 | 22 | 178 | 11.3 | 14.5 | 0.00 | 0.00 | 0.00 | 49 | 1022.0 |
| 20260902013822 | 22 | 168 | 11.3 | 14.5 | 0.00 | 0.00 | 0.00 | 48 | 1022.0 |
| 20260902013322 | 22 | 166 | 14.5 | 17.7 | 0.00 | 0.00 | 0.00 | 47 | 1022.0 |
| 20260902012822 | 22 | 164 | 11.3 | 14.5 | 0.00 | 0.00 | 0.00 | 45 | 1022.0 |
| 20260902012322 | 23 | 174 | 12.9 | 17.7 | 0.00 | 0.00 | 0.00 | 44 | 1022.0 |
| 20260902011822 | 23 | 189 | 6.4 | 12.9 | 0.00 | 0.00 | 0.00 | 41 | 1022.0 |
| 20260902011322 | 23 | 180 | 6.4 | 11.3 | 0.00 | 0.00 | 0.00 | 41 | 1022.0 |
| 20260902010822 | 23 | 191 | 4.8 | 6.4 | 0.00 | 0.00 | 0.00 | 40 | 1022.0 |
| 20260902010323 | 23 | 179 | 8.0 | 11.3 | 0.00 | 0.00 | 0.00 | 40 | 1022.0 |
| 20260902005822 | 23 | 176 | 9.7 | 12.9 | 0.00 | 0.00 | 0.00 | 39 | 1022.0 |
| 20260902005323 | 23 | 177 | 9.7 | 14.5 | 0.00 | 0.00 | 0.00 | 39 | 1022.0 |
| 20260902004821 | 24 | 170 | 12.9 | 17.7 | 0.00 | 0.00 | 0.00 | 38 | 1022.0 |
| 20260902004322 | 24 | 189 | 6.4 | 8.0 | 0.00 | 0.00 | 0.00 | 39 | 1022.0 |
| 20260902003822 | 24 | 166 | 9.7 | 12.9 | 0.00 | 0.00 | 0.00 | 38 | 1022.0 |
| 20260902003323 | 24 | 175 | 9.7 | 12.9 | 0.00 | 0.00 | 0.00 | 37 | 1022.0 |
| 20260902002822 | 25 | 160 | 9.7 | 14.5 | 0.00 | 0.00 | 0.00 | 36 | 1022.0 |
| 20260902002324 | 25 | 174 | 11.3 | 14.5 | 0.00 | 0.00 | 0.00 | 35 | 1022.0 |
| 20260902001824 | 25 | 174 | 9.7 | 14.5 | 0.00 | 0.00 | 0.00 | 34 | 1022.0 |
| 20260902001322 | 25 | 171 | 12.9 | 16.1 | 0.00 | 0.00 | 0.00 | 31 | 1022.0 |
| 20260902000823 | 26 | 170 | 8.0 | 11.3 | 0.00 | 0.00 | 0.00 | 29 | 1022.0 |
| 20260902000323 | 26 | 183 | 8.0 | 11.3 | 0.00 | 0.00 | 0.00 | 29 | 1022.0 |
| 20260901235822 | 26 | 170 | 8.0 | 11.3 | 0.00 | 0.00 | 0.00 | 29 | 1022.0 |
| 20260901235324 | 26 | 165 | 8.0 | 11.3 | 0.00 | 0.00 | 0.00 | 30 | 1022.0 |
| 20260901234822 | 26 | 156 | 8.0 | 12.9 | 0.00 | 0.00 | 0.00 | 30 | 1022.0 |
| 20260901234323 | 26 | 147 | 9.7 | 11.3 | 0.00 | 0.00 | 0.00 | 30 | 1022.0 |
| 20260901233822 | 26 | 157 | 9.7 | 12.9 | 0.00 | 0.00 | 0.00 | 29 | 1022.0 |
| 20260901233323 | 26 | 149 | 6.4 | 9.7 | 0.00 | 0.00 | 0.00 | 30 | 1022.0 |
| 20260901232822 | 26 | 175 | 8.0 | 11.3 | 0.00 | 0.00 | 0.00 | 29 | 1022.0 |
| 20260901232322 | 26 | 154 | 6.4 | 8.0 | 0.00 | 0.00 | 0.00 | 29 | 1022.0 |
| 20260901231823 | 26 | 144 | 6.4 | 9.7 | 0.00 | 0.00 | 0.00 | 29 | 1022.0 |
| 20260901231323 | 26 | 151 | 9.7 | 12.9 | 0.00 | 0.00 | 0.00 | 29 | 1022.0 |
| 20260901230822 | 26 | 198 | 4.8 | 6.4 | 0.00 | 0.00 | 0.00 | 29 | 1022.0 |
| 20260901230322 | 26 | 159 | 9.7 | 14.5 | 0.00 | 0.00 | 0.00 | 29 | 1022.0 |
| 20260901225822 | 27 | 142 | 11.3 | 14.5 | 0.00 | 0.00 | 0.00 | 29 | 1022.0 |
| 20260901225322 | 27 | 149 | 9.7 | 14.5 | 0.00 | 0.00 | 0.00 | 29 | 1022.0 |
| 20260901224823 | 27 | 161 | 12.9 | 16.1 | 0.00 | 0.00 | 0.00 | 29 | 1022.0 |
| 20260901224322 | 27 | 166 | 11.3 | 14.5 | 0.00 | 0.00 | 0.00 | 28 | 1022.0 |
| 20260901223822 | 27 | 132 | 8.0 | 11.3 | 0.00 | 0.00 | 0.00 | 29 | 1022.0 |
| 20260901223322 | 27 | 210 | 8.0 | 9.7 | 0.00 | 0.00 | 0.00 | 28 | 1022.0 |
| 20260901222822 | 27 | 148 | 4.8 | 8.0 | 0.00 | 0.00 | 0.00 | 29 | 1022.0 |
| 20260901222323 | 27 | 160 | 9.7 | 14.5 | 0.00 | 0.00 | 0.00 | 29 | 1022.0 |
| 20260901221822 | 27 | 166 | 8.0 | 11.3 | 0.00 | 0.00 | 0.00 | 29 | 1022.0 |
| 20260901221322 | 27 | 246 | 11.3 | 16.1 | 0.00 | 0.00 | 0.00 | 27 | 1022.0 |
| 20260901220822 | 27 | 313 | 8.0 | 12.9 | 0.00 | 0.00 | 0.00 | 26 | 1022.0 |
| 20260901220323 | 27 | 306 | 9.7 | 11.3 | 0.00 | 0.00 | 0.00 | 26 | 1022.0 |
| 20260901215825 | 27 | 278 | 9.7 | 14.5 | 0.00 | 0.00 | 0.00 | 27 | 1022.0 |
| 20260901215322 | 27 | 192 | 8.0 | 9.7 | 0.00 | 0.00 | 0.00 | 29 | 1023.0 |
| 20260901214822 | 27 | 193 | 6.4 | 9.7 | 0.00 | 0.00 | 0.00 | 33 | 1022.0 |
| 20260901214322 | 27 | 172 | 9.7 | 14.5 | 0.00 | 0.00 | 0.00 | 31 | 1022.0 |
| 20260901213823 | 27 | 188 | 8.0 | 12.9 | 0.00 | 0.00 | 0.00 | 30 | 1023.0 |
| 20260901213323 | 27 | 194 | 8.0 | 9.7 | 0.00 | 0.00 | 0.00 | 31 | 1023.0 |
| 20260901212822 | 27 | 117 | 6.4 | 9.7 | 0.00 | 0.00 | 0.00 | 31 | 1023.0 |
| 20260901212323 | 27 | 143 | 6.4 | 9.7 | 0.00 | 0.00 | 0.00 | 31 | 1023.0 |
| 20260901211822 | 27 | 163 | 11.3 | 14.5 | 0.00 | 0.00 | 0.00 | 32 | 1023.0 |
| 20260901211322 | 26 | 154 | 14.5 | 17.7 | 0.00 | 0.00 | 0.00 | 32 | 1023.0 |
| 20260901210822 | 27 | 163 | 11.3 | 14.5 | 0.00 | 0.00 | 0.00 | 30 | 1023.0 |
| 20260901210323 | 27 | 208 | 6.4 | 9.7 | 0.00 | 0.00 | 0.00 | 27 | 1023.0 |
| 20260901205825 | 27 | 337 | 4.8 | 8.0 | 0.00 | 0.00 | 0.00 | 30 | 1023.0 |
| 20260901205323 | 27 | 155 | 4.8 | 8.0 | 0.00 | 0.00 | 0.00 | 31 | 1023.0 |
| 20260901204822 | 26 | 174 | 8.0 | 12.9 | 0.00 | 0.00 | 0.00 | 31 | 1023.0 |
| 20260901204323 | 26 | 263 | 6.4 | 12.9 | 0.00 | 0.00 | 0.00 | 26 | 1023.0 |
| 20260901203822 | 26 | 236 | 24.1 | 32.2 | 0.00 | 0.00 | 0.00 | 31 | 1023.0 |
| 20260901203323 | 26 | 172 | 12.9 | 19.3 | 0.00 | 0.00 | 0.00 | 29 | 1023.0 |
| 20260901202826 | 27 | 140 | 6.4 | 9.7 | 0.00 | 0.00 | 0.00 | 30 | 1023.0 |
| 20260901201840 | 26 | 170 | 1.6 | 4.8 | 0.00 | 0.00 | 0.00 | 28 | 1023.0 |
| 20260901201322 | 27 | 198 | 4.8 | 8.0 | 0.00 | 0.00 | 0.00 | 28 | 1023.0 |
| 20260901200822 | 26 | 328 | 8.0 | 12.9 | 0.00 | 0.00 | 0.00 | 27 | 1023.0 |
| 20260901200325 | 26 | 254 | 9.7 | 14.5 | 0.00 | 0.00 | 0.00 | 28 | 1023.0 |
| 20260901195822 | 26 | 274 | 6.4 | 12.9 | 0.00 | 0.00 | 0.00 | 29 | 1023.0 |
| 20260901195322 | 26 | 81 | 4.8 | 9.7 | 0.00 | 0.00 | 0.00 | 28 | 1023.0 |
| 20260901194822 | 26 | 211 | 9.7 | 16.1 | 0.00 | 0.00 | 0.00 | 28 | 1024.0 |
| 20260901194323 | 26 | 146 | 8.0 | 14.5 | 0.00 | 0.00 | 0.00 | 35 | 1024.0 |
| 20260901193828 | 26 | 105 | 6.4 | 9.7 | 0.00 | 0.00 | 0.00 | 32 | 1024.0 |
| 20260901193322 | 26 | 231 | 4.8 | 11.3 | 0.00 | 0.00 | 0.00 | 30 | 1024.0 |
| 20260901192822 | 26 | 177 | 6.4 | 11.3 | 0.00 | 0.00 | 0.00 | 32 | 1024.0 |
| 20260901192323 | 26 | 138 | 4.8 | 8.0 | 0.00 | 0.00 | 0.00 | 29 | 1024.0 |
| 20260901191822 | 25 | 222 | 8.0 | 14.5 | 0.00 | 0.00 | 0.00 | 31 | 1024.0 |
| 20260901191323 | 25 | 208 | 11.3 | 16.1 | 0.00 | 0.00 | 0.00 | 34 | 1024.0 |
| 20260901190822 | 25 | 287 | 9.7 | 16.1 | 0.00 | 0.00 | 0.00 | 31 | 1024.0 |
| 20260901190323 | 25 | 258 | 12.9 | 19.3 | 0.00 | 0.00 | 0.00 | 30 | 1024.0 |
| 20260901185825 | 25 | 212 | 6.4 | 9.7 | 0.00 | 0.00 | 0.00 | 32 | 1024.0 |
| 20260901185322 | 25 | 255 | 16.1 | 19.3 | 0.00 | 0.00 | 0.00 | 31 | 1024.0 |
| 20260901184823 | 25 | 238 | 8.0 | 12.9 | 0.00 | 0.00 | 0.00 | 33 | 1024.0 |
| 20260901184324 | 25 | 279 | 9.7 | 14.5 | 0.00 | 0.00 | 0.00 | 33 | 1024.0 |
| 20260901183822 | 25 | 279 | 12.9 | 22.5 | 0.00 | 0.00 | 0.00 | 33 | 1024.0 |
| 20260901183322 | 25 | 268 | 4.8 | 8.0 | 0.00 | 0.00 | 0.00 | 31 | 1024.0 |
| 20260901182822 | 25 | 258 | 9.7 | 16.1 | 0.00 | 0.00 | 0.00 | 31 | 1024.0 |
| 20260901182323 | 25 | 287 | 6.4 | 11.3 | 0.00 | 0.00 | 0.00 | 33 | 1024.0 |
| 20260901181822 | 25 | 279 | 11.3 | 16.1 | 0.00 | 0.00 | 0.00 | 32 | 1024.0 |
| 20260901181322 | 25 | 284 | 9.7 | 16.1 | 0.00 | 0.00 | 0.00 | 32 | 1024.0 |
| 20260901180823 | 25 | 237 | 9.7 | 14.5 | 0.00 | 0.00 | 0.00 | 34 | 1024.0 |
| 20260901180324 | 24 | 219 | 8.0 | 11.3 | 0.00 | 0.00 | 0.00 | 34 | 1024.0 |
| 20260901175823 | 24 | 284 | 8.0 | 12.9 | 0.00 | 0.00 | 0.00 | 36 | 1025.0 |
| 20260901175322 | 23 | 290 | 12.9 | 19.3 | 0.00 | 0.00 | 0.00 | 35 | 1025.0 |
| 20260901174827 | 23 | 278 | 12.9 | 19.3 | 0.00 | 0.00 | 0.00 | 37 | 1025.0 |
| 20260901174323 | 23 | 290 | 9.7 | 14.5 | 0.00 | 0.00 | 0.00 | 38 | 1025.0 |
| 20260901173823 | 23 | 246 | 11.3 | 17.7 | 0.00 | 0.00 | 0.00 | 37 | 1025.0 |
| 20260901173324 | 23 | 236 | 12.9 | 16.1 | 0.00 | 0.00 | 0.00 | 39 | 1025.0 |
| 20260901172822 | 23 | 268 | 11.3 | 14.5 | 0.00 | 0.00 | 0.00 | 39 | 1025.0 |
| 20260901172323 | 23 | 290 | 4.8 | 8.0 | 0.00 | 0.00 | 0.00 | 39 | 1025.0 |
| 20260901171842 | 23 | 263 | 6.4 | 9.7 | 0.00 | 0.00 | 0.00 | 40 | 1025.0 |
| 20260901171323 | 22 | 280 | 11.3 | 22.5 | 0.00 | 0.00 | 0.00 | 39 | 1025.0 |
| 20260901170823 | 22 | 251 | 9.7 | 20.9 | 0.00 | 0.00 | 0.00 | 40 | 1025.0 |
| 20260901170322 | 22 | 254 | 12.9 | 16.1 | 0.00 | 0.00 | 0.00 | 40 | 1025.0 |
| 20260901165824 | 21 | 240 | 14.5 | 19.3 | 0.00 | 0.00 | 0.00 | 40 | 1025.0 |
| 20260901165323 | 21 | 272 | 8.0 | 12.9 | 0.00 | 0.00 | 0.00 | 45 | 1025.0 |
| 20260901164823 | 21 | 255 | 9.7 | 14.5 | 0.00 | 0.00 | 0.00 | 45 | 1026.0 |
| 20260901164325 | 20 | 277 | 9.7 | 12.9 | 0.00 | 0.00 | 0.00 | 46 | 1026.0 |
| 20260901163823 | 20 | 242 | 11.3 | 17.7 | 0.00 | 0.00 | 0.00 | 46 | 1026.0 |
| 20260901163322 | 20 | 244 | 4.8 | 8.0 | 0.00 | 0.00 | 0.00 | 48 | 1026.0 |
| 20260901162832 | 20 | 248 | 6.4 | 9.7 | 0.00 | 0.00 | 0.00 | 49 | 1025.0 |
| 20260901162322 | 20 | 281 | 6.4 | 12.9 | 0.00 | 0.00 | 0.00 | 49 | 1025.0 |
| 20260901161823 | 20 | 252 | 9.7 | 12.9 | 0.00 | 0.00 | 0.00 | 48 | 1025.0 |
| 20260901161324 | 20 | 247 | 6.4 | 8.0 | 0.00 | 0.00 | 0.00 | 48 | 1025.0 |
| 20260901160824 | 19 | 261 | 4.8 | 6.4 | 0.00 | 0.00 | 0.00 | 52 | 1025.0 |
| 20260901160322 | 19 | 276 | 4.8 | 9.7 | 0.00 | 0.00 | 0.00 | 52 | 1025.0 |
| 20260901155824 | 19 | 285 | 8.0 | 12.9 | 0.00 | 0.00 | 0.00 | 54 | 1025.0 |
| 20260901155323 | 18 | 271 | 4.8 | 8.0 | 0.00 | 0.00 | 0.00 | 55 | 1025.0 |
| 20260901154822 | 18 | 271 | 6.4 | 9.7 | 0.00 | 0.00 | 0.00 | 55 | 1025.0 |
| 20260901154322 | 18 | 286 | 6.4 | 8.0 | 0.00 | 0.00 | 0.00 | 55 | 1025.0 |
| 20260901153822 | 18 | 277 | 4.8 | 9.7 | 0.00 | 0.00 | 0.00 | 57 | 1025.0 |
| 20260901153323 | 18 | 259 | 3.2 | 6.4 | 0.00 | 0.00 | 0.00 | 57 | 1025.0 |
| 20260901152822 | 17 | 238 | 1.6 | 8.0 | 0.00 | 0.00 | 0.00 | 59 | 1025.0 |
| 20260901152323 | 17 | 7 | 3.2 | 6.4 | 0.00 | 0.00 | 0.00 | 60 | 1025.0 |
| 20260901151823 | 18 | 313 | 1.6 | 4.8 | 0.00 | 0.00 | 0.00 | 60 | 1025.0 |
| 20260901151323 | 17 | 270 | 8.0 | 12.9 | 0.00 | 0.00 | 0.00 | 55 | 1025.0 |
| 20260901150825 | 16 | 16 | 1.6 | 3.2 | 0.00 | 0.00 | 0.00 | 62 | 1025.0 |
| 20260901150323 | 16 | 291 | 4.8 | 8.0 | 0.00 | 0.00 | 0.00 | 69 | 1025.0 |
| 20260901145825 | 16 | 270 | 0.0 | 1.6 | 0.00 | 0.00 | 0.00 | 71 | 1025.0 |
| 20260901145322 | 16 | 207 | 3.2 | 4.8 | 0.00 | 0.00 | 0.00 | 69 | 1025.0 |
| 20260901144823 | 17 | 124 | 0.0 | 3.2 | 0.00 | 0.00 | 0.00 | 67 | 1025.0 |
| 20260901144322 | 17 | 360 | 0.0 | 0.0 | 0.00 | 0.00 | 0.00 | 61 | 1025.0 |
| 20260901143822 | 17 | 201 | 1.6 | 3.2 | 0.00 | 0.00 | 0.00 | 60 | 1025.0 |
| 20260901143322 | 17 | 291 | 3.2 | 4.8 | 0.00 | 0.00 | 0.00 | 62 | 1025.0 |
| 20260901142823 | 17 | 154 | 1.6 | 3.2 | 0.00 | 0.00 | 0.00 | 64 | 1025.0 |
| 20260901142323 | 17 | 146 | 4.8 | 4.8 | 0.00 | 0.00 | 0.00 | 64 | 1025.0 |
| 20260901141823 | 17 | 208 | 6.4 | 9.7 | 0.00 | 0.00 | 0.00 | 61 | 1025.0 |
| 20260901141323 | 16 | 313 | 3.2 | 4.8 | 0.00 | 0.00 | 0.00 | 62 | 1025.0 |
| 20260901140822 | 16 | 343 | 1.6 | 3.2 | 0.00 | 0.00 | 0.00 | 63 | 1025.0 |
| 20260901140323 | 16 | 35 | 4.8 | 8.0 | 0.00 | 0.00 | 0.00 | 63 | 1025.0 |
| 20260901135822 | 15 | 282 | 9.7 | 14.5 | 0.00 | 0.00 | 0.00 | 66 | 1025.0 |
| 20260901135322 | 14 | 80 | 0.0 | 3.2 | 0.00 | 0.00 | 0.00 | 77 | 1025.0 |
| 20260901134822 | 13 | 89 | 3.2 | 6.4 | 0.00 | 0.00 | 0.00 | 80 | 1025.0 |
| 20260901134323 | 13 | 354 | 3.2 | 4.8 | 0.00 | 0.00 | 0.00 | 83 | 1025.0 |
| 20260901133831 | 13 | 350 | 3.2 | 8.0 | 0.00 | 0.00 | 0.00 | 85 | 1025.0 |
| 20260901133323 | 13 | 23 | 4.8 | 8.0 | 0.00 | 0.00 | 0.00 | 85 | 1025.0 |
| 20260901132823 | 13 | 346 | 4.8 | 8.0 | 0.00 | 0.00 | 0.00 | 85 | 1025.0 |
| 20260901131833 | 12 | 342 | 1.6 | 3.2 | 0.00 | 0.00 | 0.00 | 86 | 1025.0 |
| 20260901131326 | 12 | 2 | 3.2 | 4.8 | 0.00 | 0.00 | 0.00 | 86 | 1024.0 |
| 20260901130823 | 12 | 343 | 3.2 | 6.4 | 0.00 | 0.00 | 0.00 | 86 | 1024.0 |
| 20260901130322 | 12 | 325 | 3.2 | 4.8 | 0.00 | 0.00 | 0.00 | 86 | 1024.0 |
| 20260901125822 | 12 | 359 | 3.2 | 4.8 | 0.00 | 0.00 | 0.00 | 86 | 1024.0 |
| 20260901125323 | 12 | 70 | 0.0 | 1.6 | 0.00 | 0.00 | 0.00 | 86 | 1024.0 |
| 20260901124823 | 13 | 305 | 0.0 | 3.2 | 0.00 | 0.00 | 0.00 | 85 | 1024.0 |
| 20260901124324 | 12 | 334 | 3.2 | 4.8 | 0.00 | 0.00 | 0.00 | 85 | 1024.0 |
| 20260901123823 | 12 | 309 | 3.2 | 4.8 | 0.00 | 0.00 | 0.00 | 86 | 1024.0 |
| 20260901123322 | 12 | 323 | 1.6 | 3.2 | 0.00 | 0.00 | 0.00 | 86 | 1024.0 |
| 20260901122822 | 12 | 306 | 6.4 | 6.4 | 0.00 | 0.00 | 0.00 | 86 | 1024.0 |
| 20260901122323 | 13 | 359 | 3.2 | 4.8 | 0.00 | 0.00 | 0.00 | 86 | 1024.0 |
| 20260901121824 | 13 | 343 | 0.0 | 3.2 | 0.00 | 0.00 | 0.00 | 86 | 1024.0 |
| 20260901121323 | 13 | 19 | 1.6 | 3.2 | 0.00 | 0.00 | 0.00 | 86 | 1024.0 |
| 20260901120825 | 13 | 283 | 1.6 | 3.2 | 0.00 | 0.00 | 0.00 | 86 | 1024.0 |
| 20260901120323 | 13 | 287 | 3.2 | 6.4 | 0.00 | 0.00 | 0.00 | 85 | 1024.0 |
| 20260901115823 | 13 | 290 | 3.2 | 6.4 | 0.00 | 0.00 | 0.00 | 84 | 1024.0 |
| 20260901115322 | 13 | 274 | 0.0 | 1.6 | 0.00 | 0.00 | 0.00 | 84 | 1024.0 |
| 20260901114823 | 13 | 296 | 1.6 | 3.2 | 0.00 | 0.00 | 0.00 | 83 | 1024.0 |
| 20260901114323 | 13 | 124 | 0.0 | 1.6 | 0.00 | 0.00 | 0.00 | 83 | 1024.0 |
| 20260901113822 | 13 | 140 | 3.2 | 4.8 | 0.00 | 0.00 | 0.00 | 83 | 1024.0 |
| 20260901113322 | 13 | 132 | 3.2 | 6.4 | 0.00 | 0.00 | 0.00 | 83 | 1024.0 |
| 20260901112823 | 13 | 158 | 0.0 | 1.6 | 0.00 | 0.00 | 0.00 | 82 | 1024.0 |
| 20260901112323 | 13 | 360 | 0.0 | 0.0 | 0.00 | 0.00 | 0.00 | 82 | 1024.0 |
| 20260901111823 | 13 | 360 | 0.0 | 0.0 | 0.00 | 0.00 | 0.00 | 81 | 1024.0 |
| 20260901111322 | 13 | 217 | 3.2 | 3.2 | 0.00 | 0.00 | 0.00 | 81 | 1024.0 |
| 20260901110822 | 13 | 178 | 1.6 | 3.2 | 0.00 | 0.00 | 0.00 | 82 | 1024.0 |
| 20260901110322 | 13 | 274 | 0.0 | 1.6 | 0.00 | 0.00 | 0.00 | 82 | 1024.0 |
| 20260901105823 | 13 | 285 | 1.6 | 3.2 | 0.00 | 0.00 | 0.00 | 82 | 1024.0 |
| 20260901105322 | 13 | 296 | 1.6 | 3.2 | 0.00 | 0.00 | 0.00 | 83 | 1025.0 |
| 20260901104822 | 13 | 270 | 0.0 | 1.6 | 0.00 | 0.00 | 0.00 | 83 | 1025.0 |
| 20260901104323 | 13 | 257 | 0.0 | 1.6 | 0.00 | 0.00 | 0.00 | 83 | 1025.0 |
| 20260901103823 | 13 | 265 | 1.6 | 3.2 | 0.00 | 0.00 | 0.00 | 83 | 1025.0 |
| 20260901103322 | 13 | 228 | 1.6 | 3.2 | 0.00 | 0.00 | 0.00 | 83 | 1025.0 |
| 20260901102823 | 13 | 42 | 0.0 | 3.2 | 0.00 | 0.00 | 0.00 | 83 | 1025.0 |
| 20260901102322 | 13 | 30 | 1.6 | 4.8 | 0.00 | 0.00 | 0.00 | 82 | 1025.0 |
| 20260901101822 | 13 | 18 | 0.0 | 1.6 | 0.00 | 0.00 | 0.00 | 83 | 1024.0 |
| 20260901101322 | 13 | 346 | 0.0 | 1.6 | 0.00 | 0.00 | 0.00 | 82 | 1024.0 |
| 20260901100826 | 13 | 334 | 0.0 | 3.2 | 0.00 | 0.00 | 0.00 | 82 | 1024.0 |
| 20260901100322 | 13 | 360 | 0.0 | 0.0 | 0.00 | 0.00 | 0.00 | 80 | 1024.0 |
| 20260901095823 | 13 | 231 | 0.0 | 1.6 | 0.00 | 0.00 | 0.00 | 80 | 1024.0 |
| 20260901095323 | 13 | 286 | 0.0 | 0.0 | 0.00 | 0.00 | 0.00 | 81 | 1024.0 |
| 20260901094822 | 13 | 276 | 1.6 | 3.2 | 0.00 | 0.00 | 0.00 | 81 | 1025.0 |
| 20260901094323 | 13 | 239 | 1.6 | 3.2 | 0.00 | 0.00 | 0.00 | 81 | 1025.0 |
| 20260901093822 | 13 | 280 | 1.6 | 3.2 | 0.00 | 0.00 | 0.00 | 80 | 1025.0 |
| 20260901093322 | 13 | 59 | 0.0 | 1.6 | 0.00 | 0.00 | 0.00 | 80 | 1025.0 |
| 20260901092822 | 13 | 355 | 0.0 | 3.2 | 0.00 | 0.00 | 0.00 | 81 | 1025.0 |
| 20260901092323 | 13 | 38 | 1.6 | 3.2 | 0.00 | 0.00 | 0.00 | 80 | 1025.0 |
| 20260901091823 | 13 | 355 | 3.2 | 4.8 | 0.00 | 0.00 | 0.00 | 80 | 1025.0 |
| 20260901091322 | 13 | 44 | 3.2 | 4.8 | 0.00 | 0.00 | 0.00 | 79 | 1025.0 |
| 20260901090822 | 13 | 341 | 0.0 | 1.6 | 0.00 | 0.00 | 0.00 | 79 | 1025.0 |
| 20260901090322 | 13 | 30 | 0.0 | 0.0 | 0.00 | 0.00 | 0.00 | 79 | 1025.0 |
| 20260901085822 | 13 | 360 | 0.0 | 0.0 | 0.00 | 0.00 | 0.00 | 79 | 1025.0 |
| 20260901085323 | 13 | 360 | 0.0 | 0.0 | 0.00 | 0.00 | 0.00 | 78 | 1025.0 |
| 20260901084822 | 13 | 360 | 0.0 | 0.0 | 0.00 | 0.00 | 0.00 | 78 | 1025.0 |
| 20260901084322 | 13 | 360 | 0.0 | 0.0 | 0.00 | 0.00 | 0.00 | 78 | 1025.0 |
| 20260901083823 | 13 | 182 | 1.6 | 3.2 | 0.00 | 0.00 | 0.00 | 78 | 1025.0 |
| 20260901083323 | 13 | 145 | 4.8 | 6.4 | 0.00 | 0.00 | 0.00 | 78 | 1025.0 |
| 20260901082823 | 13 | 110 | 0.0 | 3.2 | 0.00 | 0.00 | 0.00 | 79 | 1025.0 |
| 20260901082322 | 13 | 89 | 1.6 | 4.8 | 0.00 | 0.00 | 0.00 | 79 | 1025.0 |
| 20260901081822 | 13 | 154 | 3.2 | 4.8 | 0.00 | 0.00 | 0.00 | 80 | 1025.0 |
| 20260901081323 | 13 | 360 | 0.0 | 0.0 | 0.00 | 0.00 | 0.00 | 80 | 1025.0 |
| 20260901080822 | 13 | 59 | 0.0 | 1.6 | 0.00 | 0.00 | 0.00 | 81 | 1025.0 |
| 20260901080323 | 13 | 288 | 0.0 | 0.0 | 0.00 | 0.00 | 0.00 | 81 | 1025.0 |
| 20260901075823 | 13 | 267 | 1.6 | 3.2 | 0.00 | 0.00 | 0.00 | 81 | 1025.0 |
| 20260901075323 | 13 | 360 | 0.0 | 0.0 | 0.00 | 0.00 | 0.00 | 81 | 1026.0 |
| 20260901074823 | 13 | 306 | 0.0 | 1.6 | 0.00 | 0.00 | 0.00 | 80 | 1026.0 |
| 20260901074322 | 13 | 208 | 1.6 | 3.2 | 0.00 | 0.00 | 0.00 | 79 | 1025.0 |
| 20260901073822 | 13 | 223 | 0.0 | 0.0 | 0.00 | 0.00 | 0.00 | 77 | 1025.0 |
| 20260901073322 | 13 | 18 | 0.0 | 1.6 | 0.00 | 0.00 | 0.00 | 77 | 1025.0 |
| 20260901072822 | 13 | 334 | 3.2 | 4.8 | 0.00 | 0.00 | 0.00 | 77 | 1025.0 |
| 20260901072324 | 13 | 304 | 4.8 | 6.4 | 0.00 | 0.00 | 0.00 | 78 | 1025.0 |
| 20260901071822 | 13 | 316 | 1.6 | 3.2 | 0.00 | 0.00 | 0.00 | 79 | 1025.0 |
| 20260901071322 | 13 | 352 | 1.6 | 3.2 | 0.00 | 0.00 | 0.00 | 78 | 1025.0 |
| 20260901070822 | 13 | 342 | 4.8 | 6.4 | 0.00 | 0.00 | 0.00 | 77 | 1025.0 |
| 20260901070325 | 13 | 346 | 3.2 | 4.8 | 0.00 | 0.00 | 0.00 | 77 | 1025.0 |
| 20260901065822 | 13 | 333 | 3.2 | 4.8 | 0.00 | 0.00 | 0.00 | 79 | 1025.0 |
| 20260901065323 | 13 | 306 | 3.2 | 4.8 | 0.00 | 0.00 | 0.00 | 77 | 1025.0 |
| 20260901064822 | 13 | 307 | 3.2 | 4.8 | 0.00 | 0.00 | 0.00 | 76 | 1025.0 |
| 20260901064322 | 13 | 329 | 1.6 | 3.2 | 0.00 | 0.00 | 0.00 | 77 | 1025.0 |
| 20260901063822 | 13 | 343 | 1.6 | 4.8 | 0.00 | 0.00 | 0.00 | 76 | 1025.0 |
| 20260901063322 | 13 | 3 | 1.6 | 3.2 | 0.00 | 0.00 | 0.00 | 77 | 1025.0 |
| 20260901062822 | 13 | 288 | 1.6 | 3.2 | 0.00 | 0.00 | 0.00 | 77 | 1025.0 |
| 20260901062323 | 13 | 297 | 0.0 | 1.6 | 0.00 | 0.00 | 0.00 | 78 | 1025.0 |
| 20260901061823 | 13 | 301 | 3.2 | 4.8 | 0.00 | 0.00 | 0.00 | 78 | 1025.0 |
| 20260901061322 | 13 | 293 | 4.8 | 4.8 | 0.00 | 0.00 | 0.00 | 76 | 1025.0 |
| 20260901060822 | 13 | 306 | 4.8 | 6.4 | 0.00 | 0.00 | 0.00 | 75 | 1025.0 |
| 20260901060322 | 14 | 301 | 3.2 | 4.8 | 0.00 | 0.00 | 0.00 | 74 | 1025.0 |
| 20260901055822 | 14 | 305 | 1.6 | 3.2 | 0.00 | 0.00 | 0.03 | 75 | 1025.0 |
| 20260901055323 | 14 | 309 | 1.6 | 3.2 | 0.00 | 0.00 | 0.03 | 74 | 1025.0 |
| 20260901054822 | 14 | 339 | 1.6 | 3.2 | 0.00 | 0.00 | 0.03 | 74 | 1025.0 |
| 20260901054323 | 14 | 319 | 1.6 | 3.2 | 0.00 | 0.00 | 0.03 | 74 | 1025.0 |
| 20260901053826 | 15 | 353 | 0.0 | 3.2 | 0.00 | 0.00 | 0.03 | 73 | 1025.0 |
| 20260901053322 | 15 | 47 | 0.0 | 1.6 | 0.00 | 0.00 | 0.03 | 73 | 1025.0 |
| 20260901052822 | 15 | 334 | 0.0 | 3.2 | 0.00 | 0.00 | 0.03 | 73 | 1025.0 |
| 20260901052322 | 15 | 310 | 1.6 | 3.2 | 0.00 | 0.00 | 0.03 | 73 | 1025.0 |
| 20260901051822 | 15 | 1 | 0.0 | 3.2 | 0.00 | 0.00 | 0.03 | 74 | 1025.0 |
| 20260901051325 | 15 | 310 | 0.0 | 1.6 | 0.00 | 0.00 | 0.03 | 74 | 1025.0 |
| 20260901050822 | 15 | 287 | 1.6 | 3.2 | 0.00 | 0.00 | 0.03 | 74 | 1025.0 |
| 20260901050322 | 15 | 301 | 0.0 | 1.6 | 0.00 | 0.00 | 0.03 | 73 | 1025.0 |
| 20260901045822 | 15 | 187 | 0.0 | 0.0 | 0.00 | 0.00 | 0.03 | 72 | 1025.0 |
| 20260901045322 | 15 | 204 | 1.6 | 3.2 | 0.00 | 0.00 | 0.03 | 72 | 1025.0 |
| 20260901044822 | 15 | 216 | 1.6 | 3.2 | 0.00 | 0.00 | 0.03 | 72 | 1026.0 |
| 20260901044323 | 15 | 217 | 3.2 | 3.2 | 0.00 | 0.00 | 0.03 | 72 | 1026.0 |
| 20260901043822 | 15 | 206 | 3.2 | 4.8 | 0.00 | 0.00 | 0.03 | 70 | 1026.0 |
| 20260901043322 | 15 | 192 | 1.6 | 3.2 | 0.00 | 0.00 | 0.03 | 70 | 1026.0 |
| 20260901042822 | 15 | 165 | 3.2 | 3.2 | 0.00 | 0.00 | 0.03 | 70 | 1026.0 |
| 20260901042323 | 16 | 188 | 3.2 | 4.8 | 0.00 | 0.00 | 0.03 | 69 | 1026.0 |
| 20260901041822 | 16 | 228 | 3.2 | 4.8 | 0.00 | 0.00 | 0.03 | 69 | 1026.0 |
| 20260901041322 | 16 | 176 | 3.2 | 3.2 | 0.00 | 0.00 | 0.03 | 67 | 1026.0 |
| 20260901040823 | 16 | 179 | 3.2 | 6.4 | 0.00 | 0.00 | 0.03 | 66 | 1026.0 |
| 20260901040322 | 16 | 170 | 3.2 | 6.4 | 0.00 | 0.00 | 0.03 | 65 | 1026.0 |
| 20260901035822 | 16 | 118 | 1.6 | 3.2 | 0.00 | 0.00 | 0.03 | 65 | 1025.0 |
| 20260901035323 | 16 | 360 | 0.0 | 0.0 | 0.00 | 0.00 | 0.03 | 64 | 1026.0 |
| 20260901034822 | 16 | 46 | 0.0 | 1.6 | 0.00 | 0.00 | 0.03 | 64 | 1025.0 |
| 20260901034322 | 16 | 207 | 1.6 | 1.6 | 0.00 | 0.00 | 0.03 | 64 | 1025.0 |
| 20260901033822 | 16 | 230 | 3.2 | 6.4 | 0.00 | 0.00 | 0.03 | 63 | 1026.0 |
| 20260901033322 | 17 | 228 | 3.2 | 6.4 | 0.00 | 0.00 | 0.03 | 63 | 1026.0 |
| 20260901032823 | 17 | 229 | 4.8 | 6.4 | 0.00 | 0.00 | 0.03 | 62 | 1026.0 |
| 20260901032322 | 17 | 171 | 3.2 | 4.8 | 0.00 | 0.00 | 0.03 | 62 | 1026.0 |
| 20260901031823 | 17 | 218 | 4.8 | 9.7 | 0.00 | 0.00 | 0.03 | 63 | 1026.0 |
| 20260901031323 | 17 | 255 | 4.8 | 6.4 | 0.00 | 0.00 | 0.03 | 63 | 1025.0 |
| 20260901030822 | 17 | 288 | 12.9 | 17.7 | 0.00 | 0.00 | 0.03 | 63 | 1025.0 |
| 20260901030323 | 17 | 307 | 4.8 | 8.0 | 0.00 | 0.00 | 0.03 | 62 | 1025.0 |
| 20260901025822 | 17 | 315 | 3.2 | 4.8 | 0.00 | 0.00 | 0.03 | 61 | 1025.0 |
| 20260901025323 | 17 | 279 | 8.0 | 12.9 | 0.00 | 0.00 | 0.03 | 64 | 1025.0 |
| 20260901024823 | 17 | 242 | 9.7 | 22.5 | 0.00 | 0.00 | 0.03 | 64 | 1025.0 |
| 20260901024322 | 17 | 279 | 9.7 | 14.5 | 0.00 | 0.00 | 0.03 | 65 | 1025.0 |
| 20260901023822 | 16 | 307 | 6.4 | 12.9 | 0.00 | 0.00 | 0.03 | 66 | 1025.0 |
| 20260901023323 | 16 | 301 | 8.0 | 14.5 | 0.00 | 0.00 | 0.03 | 66 | 1025.0 |
| 20260901022823 | 16 | 303 | 6.4 | 9.7 | 0.00 | 0.00 | 0.03 | 69 | 1025.0 |
| 20260901022322 | 16 | 271 | 8.0 | 12.9 | 0.00 | 0.00 | 0.03 | 70 | 1025.0 |
| 20260901021823 | 17 | 298 | 12.9 | 16.1 | 0.00 | 0.00 | 0.03 | 69 | 1025.0 |
| 20260901021322 | 17 | 292 | 9.7 | 14.5 | 0.13 | 0.00 | 0.03 | 67 | 1025.0 |
| 20260901020822 | 17 | 300 | 14.5 | 20.9 | 0.00 | 0.00 | 0.00 | 66 | 1025.0 |
| 20260901020322 | 17 | 284 | 17.7 | 20.9 | 0.00 | 0.00 | 0.00 | 67 | 1025.0 |
| 20260901015823 | 17 | 292 | 19.3 | 27.4 | 0.00 | 0.00 | 0.00 | 67 | 1025.0 |
| 20260901015322 | 17 | 293 | 17.7 | 25.7 | 0.00 | 0.00 | 0.00 | 69 | 1025.0 |